| time (UTC) | temp C | wind direction | speed KPH | gust KPH | rain 1hr cm | rain 24hr cm | rain mn cm | humidity % | barometer mb |
| 20260509031530 | 9 | 55 | 4.8 | 8.0 | 0.00 | 0.00 | 0.00 | 75 | 1021.5 |
| 20260509030526 | 10 | 45 | 4.8 | 12.9 | 0.00 | 0.00 | 0.00 | 75 | 1021.5 |
| 20260509025525 | 10 | 40 | 6.4 | 12.9 | 0.00 | 0.00 | 0.00 | 75 | 1021.5 |
| 20260509024529 | 10 | 21 | 3.2 | 12.9 | 0.00 | 0.00 | 0.00 | 75 | 1021.5 |
| 20260509023526 | 10 | 28 | 3.2 | 12.9 | 0.00 | 0.00 | 0.00 | 75 | 1021.5 |
| 20260509021528 | 10 | 44 | 6.4 | 12.9 | 0.00 | 0.00 | 0.00 | 74 | 1021.5 |
| 20260509020527 | 10 | 32 | 8.0 | 11.3 | 0.00 | 0.00 | 0.00 | 74 | 1021.3 |
| 20260509015527 | 10 | 47 | 6.4 | 11.3 | 0.00 | 0.00 | 0.00 | 74 | 1021.3 |
| 20260509014528 | 10 | 27 | 9.7 | 9.7 | 0.00 | 0.00 | 0.00 | 73 | 1021.3 |
| 20260509013527 | 10 | 26 | 8.0 | 9.7 | 0.00 | 0.00 | 0.00 | 73 | 1021.3 |
| 20260509012525 | 10 | 35 | 9.7 | 12.9 | 0.00 | 0.00 | 0.00 | 73 | 1021.3 |
| 20260509011529 | 10 | 43 | 9.7 | 11.3 | 0.00 | 0.00 | 0.00 | 73 | 1021.3 |
| 20260509005526 | 10 | 48 | 8.0 | 14.5 | 0.00 | 0.00 | 0.00 | 73 | 1021.6 |
| 20260509004529 | 10 | 45 | 8.0 | 12.9 | 0.00 | 0.00 | 0.00 | 73 | 1021.6 |
| 20260509002526 | 10 | 43 | 6.4 | 12.9 | 0.00 | 0.00 | 0.00 | 73 | 1021.6 |
| 20260508235526 | 11 | 59 | 8.0 | 11.3 | 0.00 | 0.00 | 0.00 | 73 | 1021.6 |
| 20260508234530 | 11 | 32 | 8.0 | 12.9 | 0.00 | 0.00 | 0.00 | 73 | 1021.6 |
| 20260508233527 | 11 | 38 | 6.4 | 12.9 | 0.00 | 0.00 | 0.00 | 73 | 1021.6 |
| 20260508231527 | 11 | 28 | 4.8 | 12.9 | 0.00 | 0.00 | 0.00 | 73 | 1021.6 |
| 20260508230527 | 11 | 22 | 6.4 | 8.0 | 0.00 | 0.00 | 0.00 | 73 | 1021.6 |
| 20260508225529 | 11 | 20 | 8.0 | 9.7 | 0.00 | 0.00 | 0.00 | 73 | 1021.6 |
| 20260508223532 | 11 | 12 | 3.2 | 4.8 | 0.00 | 0.00 | 0.00 | 73 | 1021.6 |
| 20260508222527 | 11 | 21 | 6.4 | 8.0 | 0.00 | 0.00 | 0.00 | 73 | 1021.6 |
| 20260508221529 | 11 | 11 | 3.2 | 4.8 | 0.00 | 0.00 | 0.00 | 73 | 1021.6 |
| 20260508220528 | 11 | 345 | 4.8 | 9.7 | 0.00 | 0.00 | 0.00 | 72 | 1021.5 |
| 20260508214529 | 11 | 359 | 1.6 | 9.7 | 0.00 | 0.00 | 0.00 | 72 | 1021.5 |
| 20260508213530 | 11 | 354 | 1.6 | 9.7 | 0.00 | 0.00 | 0.00 | 71 | 1021.5 |
| 20260508212526 | 11 | 346 | 1.6 | 8.0 | 0.00 | 0.00 | 0.00 | 71 | 1021.5 |
| 20260508211528 | 11 | 343 | 1.6 | 9.7 | 0.00 | 0.00 | 0.00 | 71 | 1021.5 |
| 20260508210528 | 12 | 88 | 3.2 | 9.7 | 0.00 | 0.00 | 0.00 | 70 | 1021.3 |
| 20260508204529 | 12 | 75 | 3.2 | 9.7 | 0.00 | 0.00 | 0.00 | 69 | 1021.3 |
| 20260508203526 | 12 | 77 | 3.2 | 8.0 | 0.00 | 0.00 | 0.00 | 70 | 1021.3 |
| 20260508202528 | 12 | 76 | 4.8 | 9.7 | 0.00 | 0.00 | 0.00 | 69 | 1021.3 |
| 20260508200528 | 12 | 89 | 6.4 | 11.3 | 0.00 | 0.00 | 0.00 | 69 | 1021.0 |
| 20260508194530 | 12 | 86 | 6.4 | 12.9 | 0.00 | 0.03 | 0.00 | 69 | 1021.0 |
| 20260508193528 | 12 | 72 | 3.2 | 12.9 | 0.00 | 0.03 | 0.00 | 69 | 1021.0 |
| 20260508190528 | 12 | 61 | 6.4 | 16.1 | 0.00 | 0.03 | 0.00 | 67 | 1020.5 |
| 20260508185527 | 12 | 74 | 4.8 | 17.7 | 0.00 | 0.03 | 0.00 | 67 | 1020.5 |
| 20260508184530 | 12 | 65 | 6.4 | 17.7 | 0.00 | 0.03 | 0.00 | 67 | 1020.5 |
| 20260508183527 | 12 | 60 | 11.3 | 16.1 | 0.00 | 0.03 | 0.00 | 66 | 1020.5 |
| 20260508182526 | 13 | 50 | 9.7 | 17.7 | 0.00 | 0.03 | 0.00 | 65 | 1020.5 |
| 20260508181528 | 13 | 64 | 9.7 | 16.1 | 0.00 | 0.03 | 0.00 | 65 | 1020.5 |
| 20260508180528 | 13 | 67 | 11.3 | 16.1 | 0.00 | 0.03 | 0.00 | 65 | 1020.2 |
| 20260508175528 | 13 | 72 | 8.0 | 16.1 | 0.00 | 0.03 | 0.00 | 65 | 1020.2 |
| 20260508173527 | 13 | 65 | 11.3 | 14.5 | 0.00 | 0.03 | 0.00 | 64 | 1020.2 |
| 20260508172527 | 13 | 77 | 12.9 | 14.5 | 0.00 | 0.03 | 0.00 | 64 | 1020.2 |
| 20260508171529 | 13 | 89 | 8.0 | 16.1 | 0.00 | 0.05 | 0.00 | 64 | 1020.2 |
| 20260508170526 | 13 | 76 | 9.7 | 19.3 | 0.00 | 0.05 | 0.00 | 64 | 1020.2 |
| 20260508165527 | 14 | 79 | 6.4 | 17.7 | 0.00 | 0.05 | 0.00 | 63 | 1020.2 |
| 20260508162528 | 14 | 68 | 9.7 | 19.3 | 0.00 | 0.05 | 0.00 | 63 | 1020.2 |
| 20260508161530 | 14 | 80 | 9.7 | 16.1 | 0.00 | 0.05 | 0.00 | 62 | 1020.2 |
| 20260508160528 | 14 | 74 | 9.7 | 20.9 | 0.00 | 0.05 | 0.00 | 62 | 1020.3 |
| 20260508155527 | 14 | 64 | 11.3 | 22.5 | 0.00 | 0.05 | 0.00 | 62 | 1020.3 |
| 20260508154529 | 14 | 89 | 9.7 | 20.9 | 0.00 | 0.05 | 0.00 | 63 | 1020.3 |
| 20260508153534 | 14 | 79 | 12.9 | 22.5 | 0.00 | 0.05 | 0.00 | 63 | 1020.3 |
| 20260508152528 | 14 | 89 | 9.7 | 22.5 | 0.00 | 0.05 | 0.00 | 63 | 1020.3 |
| 20260508151530 | 14 | 49 | 14.5 | 19.3 | 0.00 | 0.05 | 0.00 | 63 | 1020.3 |
| 20260508150527 | 14 | 53 | 16.1 | 19.3 | 0.00 | 0.05 | 0.00 | 62 | 1020.4 |
| 20260508145527 | 15 | 48 | 12.9 | 12.9 | 0.00 | 0.05 | 0.00 | 62 | 1020.4 |
| 20260508144529 | 15 | 77 | 4.8 | 12.9 | 0.00 | 0.05 | 0.00 | 62 | 1020.4 |
| 20260508143528 | 15 | 80 | 8.0 | 12.9 | 0.00 | 0.05 | 0.00 | 62 | 1020.4 |
| 20260508142527 | 15 | 73 | 6.4 | 11.3 | 0.00 | 0.05 | 0.00 | 63 | 1020.4 |
| 20260508141529 | 15 | 37 | 4.8 | 12.9 | 0.00 | 0.05 | 0.00 | 63 | 1020.4 |
| 20260508140528 | 15 | 42 | 8.0 | 14.5 | 0.00 | 0.05 | 0.00 | 62 | 1020.8 |
| 20260508135531 | 15 | 30 | 8.0 | 12.9 | 0.00 | 0.05 | 0.00 | 62 | 1020.8 |
| 20260508134530 | 15 | 22 | 6.4 | 12.9 | 0.00 | 0.05 | 0.00 | 61 | 1020.8 |
| 20260508133526 | 16 | 24 | 9.7 | 11.3 | 0.00 | 0.05 | 0.00 | 61 | 1020.8 |
| 20260508132527 | 15 | 37 | 6.4 | 11.3 | 0.00 | 0.05 | 0.00 | 63 | 1020.8 |
| 20260508131529 | 14 | 66 | 1.6 | 12.9 | 0.00 | 0.05 | 0.00 | 64 | 1020.8 |
| 20260508130527 | 14 | 308 | 3.2 | 12.9 | 0.00 | 0.05 | 0.00 | 64 | 1020.9 |
| 20260508125526 | 14 | 309 | 3.2 | 16.1 | 0.00 | 0.05 | 0.00 | 64 | 1020.9 |
| 20260508124530 | 14 | 29 | 1.6 | 12.9 | 0.00 | 0.05 | 0.00 | 64 | 1020.9 |
| 20260508123526 | 14 | 27 | 1.6 | 12.9 | 0.00 | 0.05 | 0.00 | 64 | 1020.9 |
| 20260508122527 | 15 | 10 | 1.6 | 12.9 | 0.00 | 0.05 | 0.00 | 64 | 1020.9 |
| 20260508120527 | 13 | 311 | 6.4 | 16.1 | 0.00 | 0.05 | 0.00 | 66 | 1021.1 |
| 20260508115527 | 13 | 305 | 9.7 | 16.1 | 0.00 | 0.05 | 0.00 | 67 | 1021.1 |
| 20260508114530 | 13 | 55 | 6.4 | 17.7 | 0.00 | 0.05 | 0.00 | 68 | 1021.1 |
| 20260508113527 | 13 | 48 | 6.4 | 17.7 | 0.00 | 0.05 | 0.00 | 68 | 1021.1 |
| 20260508112526 | 13 | 55 | 6.4 | 16.1 | 0.00 | 0.05 | 0.00 | 69 | 1021.1 |
| 20260508111529 | 13 | 60 | 3.2 | 16.1 | 0.00 | 0.05 | 0.00 | 69 | 1021.1 |
| 20260508105527 | 12 | 55 | 6.4 | 12.9 | 0.00 | 0.05 | 0.00 | 69 | 1021.0 |
| 20260508104529 | 12 | 33 | 9.7 | 12.9 | 0.00 | 0.05 | 0.00 | 69 | 1021.0 |
| 20260508102528 | 12 | 32 | 9.7 | 12.9 | 0.00 | 0.05 | 0.00 | 70 | 1021.0 |
| 20260508101529 | 12 | 52 | 8.0 | 14.5 | 0.00 | 0.05 | 0.00 | 70 | 1021.0 |
| 20260508100528 | 12 | 51 | 8.0 | 12.9 | 0.00 | 0.05 | 0.00 | 71 | 1020.9 |
| 20260508095526 | 12 | 58 | 9.7 | 14.5 | 0.00 | 0.05 | 0.00 | 71 | 1020.9 |
| 20260508094529 | 12 | 44 | 9.7 | 14.5 | 0.00 | 0.05 | 0.00 | 72 | 1020.9 |
| 20260508092527 | 12 | 34 | 6.4 | 12.9 | 0.00 | 0.05 | 0.00 | 73 | 1020.9 |
| 20260508090527 | 12 | 45 | 8.0 | 16.1 | 0.00 | 0.05 | 0.00 | 74 | 1020.8 |
| 20260508085527 | 12 | 42 | 6.4 | 16.1 | 0.00 | 0.05 | 0.00 | 74 | 1020.8 |
| 20260508084529 | 12 | 60 | 4.8 | 19.3 | 0.00 | 0.05 | 0.00 | 74 | 1020.8 |
| 20260508082527 | 11 | 50 | 4.8 | 17.7 | 0.00 | 0.05 | 0.00 | 76 | 1020.8 |
| 20260508081530 | 11 | 59 | 4.8 | 17.7 | 0.00 | 0.05 | 0.00 | 77 | 1020.8 |
| 20260508080528 | 11 | 51 | 8.0 | 17.7 | 0.00 | 0.05 | 0.00 | 78 | 1020.4 |
| 20260508075526 | 11 | 47 | 6.4 | 16.1 | 0.00 | 0.05 | 0.00 | 78 | 1020.4 |
| 20260508074529 | 11 | 59 | 12.9 | 17.7 | 0.00 | 0.05 | 0.00 | 79 | 1020.4 |
| 20260508072526 | 10 | 60 | 9.7 | 17.7 | 0.00 | 0.05 | 0.00 | 81 | 1020.4 |
| 20260508071529 | 10 | 61 | 12.9 | 17.7 | 0.00 | 0.05 | 0.00 | 81 | 1020.4 |
| 20260508070527 | 10 | 64 | 11.3 | 16.1 | 0.00 | 0.05 | 0.00 | 82 | 1020.0 |
| 20260508064530 | 9 | 30 | 9.7 | 16.1 | 0.00 | 0.05 | 0.00 | 82 | 1020.0 |
| 20260508061529 | 8 | 45 | 9.7 | 16.1 | 0.00 | 0.05 | 0.00 | 84 | 1020.0 |
| 20260508060529 | 8 | 42 | 11.3 | 16.1 | 0.00 | 0.05 | 0.00 | 84 | 1019.8 |
| 20260508055527 | 8 | 34 | 11.3 | 16.1 | 0.00 | 0.05 | 0.00 | 84 | 1019.8 |
| 20260508054530 | 8 | 49 | 11.3 | 16.1 | 0.00 | 0.05 | 0.00 | 84 | 1019.8 |
| 20260508052527 | 8 | 55 | 12.9 | 16.1 | 0.00 | 0.05 | 0.00 | 84 | 1019.8 |
| 20260508051529 | 8 | 41 | 11.3 | 14.5 | 0.00 | 0.05 | 0.00 | 84 | 1019.8 |
| 20260508050528 | 8 | 44 | 11.3 | 12.9 | 0.00 | 0.05 | 0.00 | 84 | 1019.5 |
| 20260508045527 | 8 | 30 | 9.7 | 12.9 | 0.00 | 0.05 | 0.00 | 84 | 1019.5 |
| 20260508044528 | 8 | 40 | 8.0 | 11.3 | 0.00 | 0.05 | 0.00 | 84 | 1019.5 |
| 20260508043527 | 8 | 31 | 8.0 | 11.3 | 0.00 | 0.05 | 0.00 | 84 | 1019.5 |
| 20260508042528 | 7 | 32 | 6.4 | 12.9 | 0.00 | 0.05 | 0.00 | 84 | 1019.5 |
| 20260508041531 | 7 | 27 | 9.7 | 12.9 | 0.00 | 0.05 | 0.00 | 84 | 1019.5 |
| 20260508040529 | 7 | 35 | 8.0 | 11.3 | 0.00 | 0.05 | 0.00 | 84 | 1019.3 |
| 20260508034528 | 7 | 28 | 9.7 | 11.3 | 0.00 | 0.05 | 0.00 | 84 | 1019.3 |
| 20260508033527 | 7 | 16 | 9.7 | 11.3 | 0.00 | 0.05 | 0.00 | 84 | 1019.3 |
| 20260508032526 | 7 | 22 | 9.7 | 12.9 | 0.00 | 0.05 | 0.00 | 84 | 1019.3 |